, AK

(GMT )
Deadhorse

Weather History for PASC - December, 2011

Change the Weather History Date:

Saturday, December 31, 2011

  Actual Average Record
Temperature  
Mean Temperature -27 °F -  
Max Temperature -18 °F -3 °F 27 °F (1987)
Min Temperature -36 °F -16 °F -43 °F (1986)
Degree Days  
Heating Degree Days 92    
Moisture  
Dew Point -29 °F    
Average Humidity 75    
Maximum Humidity 81    
Minimum Humidity 70    
Precipitation  
Precipitation 0.00 in - - ()
Sea Level Pressure  
Sea Level Pressure 30.01 in    
Wind  
Wind Speed 4 mph (SW)    
Max Wind Speed 13 mph    
Max Gust Speed -    
Visibility 10 miles    
Events      
Averages and records for this station are not official NWS values.
T = Trace of Precipitation, MM = Missing Value Source: NWS Daily Summary

Daily Weather History Graph

Daily Weather History Graph

Search for Another Location

Airport or City:

Trip Planner

Search our weather history database for the weather conditions in past years. The results will help you decide how hot, cold, wet, or windy it might be!

Date:

Astronomy

Dec. 31, 1969 Rise Set
Actual Time Sun does not set Sun does not set
Civil Twilight 10:48 AM AKST 3:05 PM AKST
Nautical Twilight 9:01 AM AKST 4:52 PM AKST
Astronomical Twilight 7:41 AM AKST 6:13 PM AKST
Moon 11:12 AM AKST (12/31) 12:59 AM AKST (12/31)
Length of Visible Light 4h 16m
Length of Day
0h 00m
Waxing Crescent, 46% of the Moon is Illuminated
Dec 31
Waxing Crescent
Dec 31
First Quarter
Jan 8
Full
Jan 16
Last Quarter
Jan 22
New

Hourly Weather History & Observations

Time (AKST) Temp. Windchill Dew Point Humidity Pressure Visibility Wind Dir Wind Speed Gust Speed Precip Events Conditions
12:53 AM -20.0 °F - -27.0 °F 70% 29.82 in 10.0 mi Calm Calm - N/A   Overcast
1:53 AM -18.9 °F - -25.1 °F 74% 29.84 in 10.0 mi Calm Calm - N/A   Overcast
3:53 AM -23.1 °F -36.8 °F -29.0 °F 74% 29.87 in 10.0 mi SE 4.6 mph - N/A   Overcast
4:53 AM -24.0 °F -35.2 °F -29.9 °F 74% 29.88 in 8.0 mi ESE 3.5 mph - N/A   Overcast
5:53 AM -27.0 °F -43.7 °F -32.1 °F 77% 29.89 in 10.0 mi SE 5.8 mph - N/A   Clear
6:53 AM -31.0 °F -46.1 °F - N/A% 29.92 in 10.0 mi South 4.6 mph - N/A   Clear
7:53 AM -29.0 °F -47.9 °F -33.0 °F 81% 29.93 in 10.0 mi WSW 6.9 mph - N/A   Clear
8:53 AM -32.1 °F -49.6 °F - N/A% 29.96 in 10.0 mi SSW 5.8 mph - N/A   Clear
9:53 AM -34.1 °F -54.0 °F - N/A% 29.99 in 10.0 mi SSW 6.9 mph - N/A   Clear
10:53 AM -33.0 °F -57.2 °F - N/A% 30.01 in 10.0 mi WSW 10.4 mph - N/A   Clear
11:53 AM -34.1 °F -57.2 °F - N/A% 30.02 in 10.0 mi WSW 9.2 mph - N/A   Clear
12:53 PM -31.0 °F -57.1 °F - N/A% 30.03 in 10.0 mi SW 12.7 mph - N/A   Clear
1:53 PM -33.0 °F -52.7 °F - N/A% 30.05 in 10.0 mi SW 6.9 mph - N/A   Clear
2:53 PM -36.0 °F -52.0 °F - N/A% 30.07 in 10.0 mi SSW 4.6 mph - N/A   Clear
3:53 PM -36.0 °F - - N/A% 30.09 in 10.0 mi Calm Calm - N/A   Clear
4:53 PM -36.0 °F -49.0 °F - N/A% 30.09 in 10.0 mi SW 3.5 mph - N/A   Clear
5:53 PM -36.0 °F -56.3 °F - N/A% 30.09 in 10.0 mi WSW 6.9 mph - N/A   Clear
6:53 PM -36.0 °F - - N/A% 30.09 in 10.0 mi Calm Calm - N/A   Clear
7:53 PM -36.0 °F -54.3 °F - N/A% 30.12 in 10.0 mi WSW 5.8 mph - N/A   Clear
8:53 PM -35.0 °F -55.0 °F - N/A% 30.13 in 10.0 mi SW 6.9 mph - N/A   Clear
9:53 PM -35.0 °F -50.7 °F - N/A% 30.14 in 10.0 mi SW 4.6 mph - N/A   Clear
10:53 PM -36.0 °F -52.0 °F - N/A% 30.14 in 10.0 mi SW 4.6 mph - N/A   Clear
11:53 PM -36.9 °F -55.4 °F - N/A% 30.14 in 10.0 mi SW 5.8 mph - N/A   Clear